Tracking 30970 objects as of 3-Jul-2025
HD Live streaming from Space Station
objects crossing your sky now

BREEZE-M DEB

Track BREEZE-M DEB now!


NORAD ID: 38586
Int'l Code: 2008-011AH
Perigee: 1,407.2 km
Apogee: 27,207.3 km
Inclination: 49.5 °
Period: 493.2 minutes
Semi major axis: 20678 km
RCS: 0.0885 m2 (small)
Launch date: March 14, 2008
Source: Commonwealth of Independent States (former USSR) (CIS)
Launch site: TYURATAM MISSILE AND SPACE COMPLEX (TTMTR)

Note: This is SATELLITE DEBRIS
Your satellite tracking list
SCATHA AKM
Track 1 satellite(s)




NASA's NSSDC Master Catalog

Two Line Element Set (TLE):
1 38586U 08011AH  25182.25813914 -.00000129  00000-0  00000-0 0  9994
2 38586  49.4821  62.2076 6238470 187.4053 155.3171  2.91966518151626
Source of the keplerian elements: AFSPC